EW0362 Weather Reports


time (UTC)temp
F
wind
direction
speed
knots
gust
knots
rain 1hr
in
rain 24hr
in
rain mn
in
humidity
%
barometer
mb
20260904055704 66 65 0.0 0.0 0.00 0.09 0.00 97 1010.5
20260904055204 66 65 0.0 0.0 0.00 0.09 0.00 97 1010.5
20260904054703 66 65 0.0 0.0 0.00 0.09 0.00 97 1010.5
20260904054204 66 65 0.0 0.0 0.00 0.09 0.00 97 1010.5
20260904053703 66 65 0.0 0.0 0.00 0.09 0.00 97 1010.5
20260904053203 66 65 0.0 0.0 0.00 0.09 0.00 97 1010.6
20260904052704 67 65 0.0 0.0 0.00 0.09 0.00 97 1010.6
20260904051203 67 65 0.0 0.0 0.00 0.09 0.00 97 1010.9
20260904050204 67 65 0.0 0.0 0.00 0.09 0.00 97 1010.8
20260904045704 67 65 0.0 0.0 0.00 0.09 0.00 97 1010.7
20260904045204 67 65 0.0 0.0 0.00 0.09 0.00 97 1010.7
20260904044204 67 63 0.0 0.0 0.00 0.09 0.00 97 1010.8
20260904043703 67 63 0.0 0.0 0.00 0.09 0.00 97 1010.8
20260904042703 67 63 0.0 0.0 0.00 0.09 0.00 97 1011.0
20260904042204 67 63 0.0 0.0 0.00 0.09 0.00 97 1010.9
20260904035703 67 63 0.0 0.0 0.00 0.09 0.09 97 1011.2
20260904034703 67 63 0.0 0.9 0.00 0.09 0.09 97 1011.3
20260904032704 67 63 0.0 0.9 0.00 0.09 0.09 97 1011.3
20260904032203 67 61 0.0 0.0 0.00 0.09 0.09 97 1011.3
20260904031704 67 61 0.0 0.0 0.01 0.09 0.09 97 1011.4
20260904030204 67 61 0.0 0.9 0.01 0.09 0.09 96 1011.4
20260904025703 67 61 0.0 0.0 0.01 0.09 0.09 96 1011.4
20260904023203 67 61 0.0 0.0 0.01 0.09 0.09 96 1011.3
20260904022704 67 61 0.0 0.0 0.01 0.09 0.09 96 1011.4
20260904022204 67 61 0.0 0.0 0.01 0.09 0.09 96 1011.3
20260904020703 67 61 0.0 0.0 0.00 0.08 0.08 96 1011.4
20260904014203 67 61 0.0 0.0 0.00 0.08 0.08 95 1011.6
20260904012704 68 61 0.0 0.0 0.00 0.08 0.08 95 1011.7
20260904012204 68 61 0.0 0.0 0.00 0.08 0.08 95 1011.7
20260904011705 68 61 0.0 0.0 0.00 0.08 0.08 95 1011.7
20260904011204 68 61 0.0 0.0 0.00 0.08 0.08 95 1011.7
20260904010204 68 61 0.0 0.0 0.00 0.08 0.08 95 1011.6
20260904005204 68 61 0.0 0.0 0.00 0.08 0.08 95 1011.5
20260904004705 68 61 0.0 0.0 0.00 0.08 0.08 94 1011.4
20260904003704 69 61 0.0 0.0 0.00 0.08 0.08 94 1011.4
20260904002205 69 61 0.0 0.0 0.00 0.08 0.08 94 1011.2
20260904001704 69 61 0.0 0.0 0.00 0.08 0.08 94 1011.1
20260904000204 70 61 0.0 0.0 0.00 0.08 0.08 94 1010.8
20260903235705 70 61 0.0 0.0 0.00 0.08 0.08 93 1010.9
20260903233705 70 61 0.0 0.0 0.00 0.08 0.08 93 1010.8
20260903231704 71 61 0.0 0.0 0.00 0.08 0.08 93 1010.9
20260903230704 72 61 0.0 0.0 0.00 0.08 0.08 93 1011.1
20260903225205 72 61 0.0 0.0 0.00 0.08 0.08 93 1010.8
20260903224704 72 61 0.0 0.0 0.00 0.08 0.08 93 1010.8
20260903224204 72 61 0.0 0.0 0.00 0.08 0.08 92 1010.7
20260903223705 73 61 0.0 0.0 0.00 0.08 0.08 92 1010.6
20260903223204 73 61 0.0 0.0 0.00 0.08 0.08 92 1011.0
20260903221705 73 61 0.0 0.0 0.00 0.08 0.08 92 1011.3
20260903221204 73 61 0.0 0.0 0.00 0.08 0.08 92 1011.4
20260903220205 73 61 0.0 0.0 0.00 0.08 0.08 91 1011.3
20260903215705 73 61 0.0 0.0 0.00 0.08 0.08 92 1011.2
20260903215204 73 61 0.0 0.0 0.00 0.08 0.08 92 1011.3
20260903213705 74 61 0.0 0.0 0.00 0.08 0.08 91 1011.3
20260903213205 74 61 0.0 0.0 0.00 0.08 0.08 90 1011.3
20260903205704 74 61 0.0 1.7 0.00 0.08 0.08 87 1011.3
20260903205205 74 62 0.0 0.9 0.00 0.08 0.08 87 1011.3
20260903204204 74 63 0.0 0.0 0.00 0.08 0.08 88 1011.3
20260903203704 74 63 0.0 0.0 0.00 0.08 0.08 88 1011.3
20260903201704 74 66 0.0 0.9 0.00 0.08 0.08 87 1011.3
20260903201205 74 66 0.0 0.0 0.00 0.08 0.08 87 1011.5
20260903195704 73 66 0.0 1.7 0.00 0.08 0.08 87 1011.6
20260903195204 73 67 0.0 1.7 0.00 0.08 0.08 88 1011.8
20260903194704 72 67 0.0 0.9 0.00 0.08 0.08 88 1011.8
20260903192704 72 52 0.0 0.0 0.00 0.08 0.08 89 1012.0
20260903191204 72 53 0.0 0.9 0.00 0.08 0.08 88 1012.0
20260903190704 72 53 0.0 0.9 0.00 0.08 0.08 89 1012.1
20260903190204 72 51 0.0 0.0 0.00 0.08 0.08 88 1012.2
20260903185704 72 51 0.0 0.9 0.00 0.08 0.08 87 1012.3
20260903184705 71 131 0.0 0.0 0.00 0.08 0.08 90 1012.5
20260903184204 71 131 0.0 1.7 0.00 0.08 0.08 89 1012.6
20260903182704 71 90 0.0 1.7 0.00 0.08 0.08 89 1012.5
20260903180704 70 85 0.0 0.9 0.00 0.08 0.08 90 1012.7
20260903175705 70 85 0.0 0.9 0.00 0.08 0.08 91 1013.0
20260903173205 70 71 0.0 0.0 0.00 0.08 0.08 92 1013.2
20260903172204 70 71 0.0 0.0 0.00 0.08 0.08 91 1013.1
20260903170705 69 72 0.0 0.9 0.00 0.08 0.08 92 1012.9
20260903170205 69 70 0.0 0.9 0.00 0.08 0.08 91 1012.9
20260903163204 68 217 0.0 0.9 0.00 0.08 0.08 95 1013.0
20260903162704 68 217 0.0 0.0 0.00 0.08 0.08 94 1013.1
20260903161704 68 217 0.0 0.0 0.00 0.08 0.08 94 1013.1
20260903161204 68 217 0.0 0.9 0.00 0.08 0.08 94 1013.2
20260903160704 68 219 0.0 0.9 0.00 0.08 0.08 95 1013.3
20260903160204 68 69 0.0 0.9 0.00 0.08 0.08 96 1013.3
20260903155204 67 90 0.0 0.9 0.00 0.08 0.08 96 1013.0
20260903154704 67 93 0.0 0.9 0.00 0.08 0.08 97 1013.3
20260903153705 66 67 0.0 0.9 0.00 0.08 0.08 97 1013.5
20260903153204 66 53 0.0 0.9 0.00 0.08 0.08 96 1013.7
20260903152705 66 53 0.0 0.9 0.00 0.08 0.08 97 1013.7
20260903152205 66 53 0.0 0.9 0.00 0.08 0.08 97 1013.7
20260903150704 65 53 0.0 0.9 0.00 0.08 0.08 97 1013.8
20260903145204 65 53 0.0 0.0 0.00 0.08 0.08 97 1014.0
20260903143704 65 51 0.0 0.0 0.00 0.08 0.08 97 1014.0
20260903143204 65 51 0.0 0.0 0.00 0.08 0.08 97 1013.9
20260903142204 65 51 0.0 0.9 0.00 0.08 0.08 97 1013.9
20260903135704 65 51 0.0 0.0 0.00 0.08 0.08 98 1014.5
20260903135204 64 51 0.0 0.0 0.00 0.08 0.08 97 1014.5
20260903134704 64 51 0.0 0.0 0.00 0.08 0.08 97 1014.4
20260903133204 64 51 0.0 0.0 0.00 0.08 0.08 98 1014.2
20260903132204 64 52 0.0 0.0 0.00 0.08 0.08 98 1014.2
20260903131204 64 52 0.0 0.0 0.00 0.08 0.08 98 1014.4
20260903124704 64 51 0.0 0.0 0.00 0.08 0.08 98 1014.4
20260903123704 64 51 0.0 0.0 0.00 0.08 0.08 98 1014.6
20260903123205 63 51 0.0 0.0 0.00 0.08 0.08 98 1014.8
20260903122204 63 51 0.0 0.0 0.00 0.08 0.08 97 1014.9
20260903121704 63 52 0.0 0.0 0.00 0.08 0.08 97 1014.9
20260903121204 63 52 0.0 0.0 0.00 0.08 0.08 97 1014.9
20260903115703 63 52 0.0 0.0 0.00 0.08 0.08 97 1015.0
20260903114204 63 52 0.0 0.0 0.00 0.08 0.08 97 1015.3
20260903113204 63 52 0.0 0.0 0.00 0.08 0.08 97 1015.4
20260903112704 63 52 0.0 0.0 0.00 0.08 0.08 97 1015.5
20260903112204 63 52 0.0 0.0 0.00 0.08 0.08 96 1015.3
20260903111204 63 52 0.0 0.0 0.00 0.08 0.08 96 1015.2
20260903110704 63 52 0.0 0.0 0.00 0.08 0.08 96 1015.2
20260903105704 63 52 0.0 0.0 0.01 0.08 0.08 96 1015.3
20260903101204 62 51 0.0 0.0 0.03 0.08 0.08 96 1015.2
20260903100204 63 51 0.0 0.0 0.02 0.07 0.07 96 1015.3
20260903095204 63 52 0.0 0.0 0.02 0.07 0.07 96 1015.2
20260903092704 63 51 0.0 0.0 0.01 0.06 0.06 95 1015.4
20260903091203 63 51 0.0 0.9 0.01 0.05 0.05 95 1015.6
20260903085704 63 52 0.0 0.0 0.05 0.05 0.05 95 1015.9
20260903085204 63 52 0.0 0.0 0.05 0.05 0.05 94 1015.8
20260903084704 63 52 0.0 0.0 0.05 0.05 0.05 94 1015.9
20260903084204 63 52 0.0 0.0 0.05 0.05 0.05 94 1015.8
20260903083703 64 52 0.0 0.0 0.05 0.05 0.05 94 1015.7
20260903082204 64 50 0.0 0.0 0.05 0.05 0.05 93 1015.7
20260903081203 64 50 0.0 0.0 0.04 0.04 0.04 93 1015.8
20260903080704 64 50 0.0 0.9 0.02 0.02 0.02 92 1015.8
20260903075704 64 50 0.0 0.0 0.00 0.00 0.00 92 1015.6
20260903074704 64 50 0.0 0.0 0.00 0.00 0.00 92 1015.7
20260903073704 64 50 0.0 0.0 0.00 0.00 0.00 93 1015.8
20260903073204 64 50 0.0 0.0 0.00 0.00 0.00 92 1015.6
20260903072204 64 50 0.0 0.0 0.00 0.00 0.00 94 1015.9
20260903071203 64 50 0.0 0.0 0.00 0.00 0.00 93 1015.9
20260903070203 64 50 0.0 0.0 0.00 0.00 0.00 94 1016.0
20260903064704 64 50 0.0 0.0 0.00 0.00 0.00 94 1016.5
20260903061204 64 50 0.0 0.0 0.00 0.00 0.00 94 1017.6